User: anonymous   Login
Location: Unspecified
(0.0000°N, 0.0000°E)
Time: 09:17:20
(UTC+00:00)
Language:

UNK - Orbit

View from above orbital plane
View from above orbital plane
View from above satellite
View from above satellite

Ground track
Ground track

The orbit data is extracted from the following two-line orbital elements,

1 27945U 03042G   18109.92743547 +.00000041 +00000-0 +16487-4 0  9991
2 27945 097.9854 246.9385 0012150 004.1245 356.0056 14.64786818777507
Epoch (UTC): 19 April 2018 22:15:30
Eccentricity: 0.0012150
inclination: 97.9854°
perigee height: 669 km
apogee height: 686 km
right ascension of ascending node: 246.9385°
argument of perigee: 4.1245°
revolutions per day: 14.64786818
mean anomaly at epoch: 356.0056°
orbit number at epoch: 77750

The dashed part of the orbit path shows where the satellite is in the earth's shadow,  

DLR